Change the Weather History Date:

Tuesday, January 1, 2013

  Actual Average Record
Temperature  
Mean Temperature 48 °F -  
Max Temperature 51 °F 53 °F 76 °F (1985)
Min Temperature 44 °F 37 °F 14 °F (1984)
Degree Days  
Heating Degree Days 18    
Moisture  
Dew Point 44 °F    
Average Humidity 85    
Maximum Humidity 93    
Minimum Humidity 54    
Precipitation  
Precipitation 0.22 in - - ()
Sea Level Pressure  
Sea Level Pressure 30.01 in    
Wind  
Wind Speed 4 mph (SSW)    
Max Wind Speed 15 mph    
Max Gust Speed 16 mph    
Visibility 6 miles    
Events Rain    
Averages and records for this station are not official NWS values.
T = Trace of Precipitation, MM = Missing Value Source: NWS Daily Summary

Daily Weather History Graph

Daily Weather History Graph

Search for Another Location

Airport or City:

Trip Planner

Search our weather history database for the weather conditions in past years. The results will help you decide how hot, cold, wet, or windy it might be!

Date:

Astronomy

Jan. 01, 2013 Rise Set
Actual Time 7:21 AM EST 5:08 PM EST
Civil Twilight 6:53 AM EST 5:37 PM EST
Nautical Twilight 6:21 AM EST 6:09 PM EST
Astronomical Twilight 5:50 AM EST 6:40 PM EST
Moon 9:28 PM EST 9:41 AM EST
Length of Visible Light 10h 43m
Length of Day
9h 47m
Waning Gibbous, 83% of the Moon is Illuminated
Jan 1
Waning Gibbous
Jan 4
Last Quarter
Jan 11
New
Jan 18
First Quarter
Jan 26
Full

Hourly Weather History & Observations

Time (EST) Temp. Windchill Dew Point Humidity Pressure Visibility Wind Dir Wind Speed Gust Speed Precip Events Conditions
12:53 AM 46.9 °F - 30.9 °F 54% 30.10 in 10.0 mi SW 4.6 mph - N/A   Clear
1:53 AM 46.9 °F - 33.1 °F 59% 30.09 in 10.0 mi SSW 5.8 mph - N/A   Clear
2:53 AM 46.9 °F - 34.0 °F 61% 30.08 in 10.0 mi South 3.5 mph - N/A   Scattered Clouds
3:53 AM 46.0 °F - 36.0 °F 68% 30.05 in 10.0 mi Calm Calm - N/A   Overcast
4:53 AM 45.0 °F 43.5 °F 37.0 °F 74% 30.06 in 10.0 mi South 3.5 mph - 0.00 in   Scattered Clouds
5:53 AM 45.0 °F 43.5 °F 37.0 °F 74% 30.06 in 10.0 mi South 3.5 mph - N/A   Partly Cloudy
6:53 AM 44.1 °F 42.5 °F 37.9 °F 79% 30.07 in 10.0 mi South 3.5 mph - N/A   Mostly Cloudy
7:53 AM 45.0 °F 42.6 °F 37.9 °F 76% 30.09 in 10.0 mi SSW 4.6 mph - 0.00 in Rain Light Rain
8:53 AM 46.0 °F 42.5 °F 39.0 °F 76% 30.08 in 10.0 mi South 6.9 mph - 0.00 in   Overcast
9:53 AM 46.0 °F 42.5 °F 39.9 °F 79% 30.10 in 8.0 mi SW 6.9 mph - 0.01 in Rain Light Rain
10:53 AM 46.0 °F 41.9 °F 41.0 °F 83% 30.07 in 10.0 mi SSW 8.1 mph - 0.03 in Rain Light Rain
11:53 AM 46.0 °F 39.6 °F 41.0 °F 83% 30.01 in 10.0 mi SSW 15.0 mph - 0.01 in Rain Light Rain
12:53 PM 48.0 °F - 43.0 °F 83% 29.96 in 10.0 mi SSW 8.1 mph - 0.00 in Rain Light Rain
1:53 PM 51.1 °F - 45.0 °F 80% 29.97 in 10.0 mi WSW 10.4 mph 16.1 mph 0.00 in   Overcast
2:53 PM 51.1 °F - 46.0 °F 83% 29.96 in 10.0 mi Variable 6.9 mph - 0.00 in Rain Light Rain
3:53 PM 50.0 °F - 46.9 °F 89% 29.95 in 9.0 mi South 6.9 mph - 0.01 in   Overcast
4:53 PM 51.1 °F - 46.9 °F 86% 29.96 in 8.0 mi SW 3.5 mph - 0.00 in Rain Light Rain
5:53 PM 50.0 °F - 48.0 °F 93% 29.99 in 8.0 mi North 4.6 mph - 0.02 in Rain Light Rain
6:02 PM 50.0 °F - 46.4 °F 87% 29.99 in 7.0 mi Calm Calm - 0.01 in Rain Light Rain
6:15 PM 50.0 °F - 46.4 °F 87% 29.99 in 7.0 mi NNW 3.5 mph - 0.01 in Rain Light Rain
6:42 PM 48.2 °F - 46.4 °F 93% 29.99 in 6.0 mi Calm Calm - 0.02 in Rain Light Rain
6:53 PM 48.9 °F - 46.9 °F 93% 29.99 in 3.0 mi Calm Calm - 0.02 in Rain Light Rain
7:14 PM 48.2 °F - 46.4 °F 93% 29.98 in 2.5 mi Calm Calm - 0.02 in Rain Light Rain
7:27 PM 48.2 °F - 46.4 °F 93% 29.98 in 3.0 mi SSE 3.5 mph - 0.02 in Rain Light Rain
7:53 PM 48.9 °F - 46.9 °F 93% 29.98 in 4.0 mi Calm Calm - 0.03 in Rain Light Rain
8:13 PM 48.2 °F - 46.4 °F 93% 29.99 in 2.5 mi Calm Calm - 0.01 in Rain Light Rain
8:21 PM 48.2 °F - 46.4 °F 93% 30.00 in 2.5 mi North 4.6 mph - 0.02 in Rain Light Rain
8:29 PM 48.2 °F - 46.4 °F 93% 29.99 in 2.5 mi North 4.6 mph - 0.02 in Rain Light Rain
8:53 PM 48.9 °F - 46.9 °F 93% 30.01 in 3.0 mi Calm Calm - 0.03 in Rain Light Rain
9:53 PM 48.9 °F - 46.9 °F 93% 29.99 in 3.0 mi NNE 3.5 mph - 0.02 in Rain Light Rain
10:06 PM 48.2 °F - 46.4 °F 93% 30.00 in 2.5 mi Calm Calm - 0.01 in Rain Light Rain
10:15 PM 48.2 °F - 46.4 °F 93% 30.00 in 3.0 mi Calm Calm - 0.01 in Rain Light Rain
10:35 PM 48.2 °F - 46.4 °F 93% 29.98 in 2.5 mi Calm Calm - 0.01 in Rain Light Rain
10:48 PM 48.2 °F - 46.4 °F 93% 29.99 in 3.0 mi Calm Calm - 0.01 in Rain Light Rain
10:53 PM 48.9 °F - 46.9 °F 93% 29.99 in 3.0 mi Calm Calm - 0.02 in Rain Light Rain
11:05 PM 48.2 °F - 46.4 °F 93% 29.99 in 2.5 mi Calm Calm - 0.00 in Rain Light Rain
11:30 PM 48.2 °F - 46.4 °F 93% 29.98 in 3.0 mi Calm Calm - 0.01 in Rain Light Rain
11:50 PM 48.2 °F - 46.4 °F 93% 29.97 in 2.5 mi Calm Calm - 0.02 in Rain Light Rain
11:53 PM 48.9 °F - 46.9 °F 93% 29.97 in 2.5 mi Calm Calm - 0.02 in Rain Light Rain